Powrót do katalogu

FENGYUN 1C DEB

AktywnySSO
NORAD 40691·DEBRIS·🇨🇳 China

Wystrzelony May 10, 1999 z Taiyuan Satellite Launch Center

Loading…

Następne Przeloty (najbliższe 24 godziny)

TLE

ŚwieżeSource: Space-Track

Epoka: Sep 13, 2026, 07:23 UTC

1 40691U 99025EWX 26256.30782875  .00000104  00000-0  11217-3 0  9996
2 40691  99.0284 285.9282 0127678 285.5437  73.1657 13.90063343592507

Śledź FENGYUN 1C DEB w czasie rzeczywistym z AllMySat

Download on the App Store